West Plains, MO

5:13 PM CDT on July 26, 2017 (GMT -0500)
West Plains Municipal

Weather History for KUNO - May, 2014

Change the Weather History Date:

Thursday, May 29, 2014

  Actual Average Record
Temperature  
Mean Temperature 71 °F 69 °F  
Max Temperature 78 °F 80 °F 93 °F (2012)
Min Temperature 64 °F 58 °F 41 °F (1984)
Degree Days  
Heating Degree Days 0 1  
Month to date heating degree days 105 79  
Since 1 July heating degree days 4857 4341  
Cooling Degree Days 6 5  
Month to date cooling degree days 125 84  
Year to date cooling degree days 134 112  
Growing Degree Days 20 (Base 50)    
Moisture  
Dew Point 64 °F    
Average Humidity 79    
Maximum Humidity 93    
Minimum Humidity 64    
Precipitation  
Precipitation T in 0.14 in 1.71 in (1950)
Month to date precipitation 2.81 4.65  
Year to date precipitation 11.98 18.98  
Sea Level Pressure  
Sea Level Pressure 29.97 in    
Wind  
Wind Speed 7 mph (East)    
Max Wind Speed 15 mph    
Max Gust Speed 20 mph    
Visibility 9 miles    
Events Rain    
T = Trace of Precipitation, MM = Missing Value Source: NWS Daily Summary

Daily Weather History Graph

Daily Weather History Graph

Search for Another Location

Airport or City:

Trip Planner

Search our weather history database for the weather conditions in past years. The results will help you decide how hot, cold, wet, or windy it might be!

Date:

Astronomy

May. 29, 2014 Rise Set
Actual Time 5:51 AM CDT 8:19 PM CDT
Civil Twilight 5:21 AM CDT 8:49 PM CDT
Nautical Twilight 4:43 AM CDT 9:26 PM CDT
Astronomical Twilight 4:03 AM CDT 10:07 PM CDT
Moon 6:43 AM CDT (5/29) 9:11 PM CDT (5/29)
Length of Visible Light 15h 28m
Length of Day
14h 28m
New Moon, 1% of the Moon is Illuminated
May 29
New Moon
Jun 5
First Quarter
Jun 12
Full
Jun 19
Last Quarter
Jun 27
New

Hourly Weather History & Observations

Time (CDT) Temp. Dew Point Humidity Pressure Visibility Wind Dir Wind Speed Gust Speed Precip Events Conditions
1:53 AM 64.9 °F 63.0 °F 93% 29.91 in 7.0 mi NE 3.5 mph - N/A   Partly Cloudy
3:37 AM 66.0 °F 63.0 °F 90% 29.95 in 5.0 mi Calm Calm - N/A   Overcast
3:53 AM 66.0 °F 64.0 °F 93% 29.92 in 5.0 mi NE 3.5 mph - N/A   Overcast
4:53 AM 66.0 °F 64.0 °F 93% 29.93 in 6.0 mi Calm Calm - N/A   Mostly Cloudy
5:13 AM 66.0 °F 64.0 °F 93% 29.96 in 7.0 mi ENE 4.6 mph - N/A   Overcast
5:24 AM 66.0 °F 64.0 °F 93% 29.96 in 6.0 mi ENE 3.5 mph - N/A   Overcast
5:36 AM 66.0 °F 64.0 °F 93% 29.96 in 5.0 mi NE 4.6 mph - N/A   Overcast
5:53 AM 66.0 °F 64.0 °F 93% 29.94 in 7.0 mi East 3.5 mph - N/A   Overcast
6:07 AM 66.0 °F 64.0 °F 93% 29.97 in 6.0 mi East 3.5 mph - N/A   Overcast
6:53 AM 66.9 °F 64.0 °F 90% 29.95 in 5.0 mi East 5.8 mph - N/A   Overcast
7:53 AM 66.9 °F 64.9 °F 93% 29.95 in 7.0 mi East 5.8 mph - N/A   Overcast
8:45 AM 69.1 °F 64.9 °F 87% 29.99 in 10.0 mi East 10.4 mph - N/A   Overcast
8:53 AM 69.1 °F 64.9 °F 87% 29.97 in 10.0 mi East 6.9 mph - N/A   Overcast
9:27 AM 71.1 °F 64.9 °F 81% 30.00 in 10.0 mi East 6.9 mph - N/A   Overcast
9:34 AM 71.1 °F 64.9 °F 81% 30.00 in 10.0 mi East 8.1 mph - N/A   Mostly Cloudy
9:53 AM 71.1 °F 64.0 °F 78% 29.97 in 10.0 mi East 9.2 mph - N/A   Overcast
10:06 AM 72.0 °F 64.0 °F 76% 30.00 in 10.0 mi East 11.5 mph - N/A   Overcast
10:53 AM 73.9 °F 64.9 °F 73% 29.97 in 10.0 mi East 9.2 mph - N/A   Mostly Cloudy
11:15 AM 75.0 °F 64.0 °F 69% 30.00 in 10.0 mi East 10.4 mph - N/A   Mostly Cloudy
11:22 AM 73.9 °F 63.0 °F 68% 30.00 in 10.0 mi ESE 13.8 mph - N/A   Scattered Clouds
11:53 AM 75.0 °F 63.0 °F 66% 29.97 in 10.0 mi ESE 11.5 mph - N/A   Overcast
12:23 PM 75.0 °F 63.0 °F 66% 30.00 in 10.0 mi East 8.1 mph - N/A   Overcast
12:34 PM 75.9 °F 64.0 °F 67% 30.00 in 10.0 mi ESE 9.2 mph - N/A   Overcast
12:43 PM 73.9 °F 64.0 °F 71% 30.00 in 10.0 mi East 11.5 mph - N/A   Overcast
12:53 PM 75.9 °F 64.9 °F 69% 29.97 in 10.0 mi East 9.2 mph - N/A   Overcast
1:01 PM 75.0 °F 64.0 °F 69% 30.00 in 10.0 mi ESE 12.7 mph - N/A   Overcast
1:10 PM 75.0 °F 64.0 °F 69% 29.99 in 10.0 mi East 11.5 mph - N/A   Overcast
1:53 PM 75.0 °F 64.0 °F 69% 29.96 in 10.0 mi East 9.2 mph - N/A   Mostly Cloudy
2:53 PM 77.0 °F 64.9 °F 66% 29.94 in 10.0 mi East 11.5 mph - N/A   Mostly Cloudy
3:53 PM 75.0 °F 66.0 °F 73% 29.93 in 10.0 mi ESE 13.8 mph 19.6 mph 0.00 in   Mostly Cloudy
5:53 PM 77.0 °F 64.9 °F 66% 29.92 in 10.0 mi East 9.2 mph - N/A   Partly Cloudy
6:53 PM 75.0 °F 64.9 °F 71% 29.94 in 10.0 mi ESE 6.9 mph - 0.00 in   Partly Cloudy
7:53 PM 72.0 °F 66.0 °F 81% 29.96 in 10.0 mi SE 8.1 mph - 0.00 in   Scattered Clouds
8:40 PM 71.1 °F 66.0 °F 84% 30.01 in 10.0 mi ESE 8.1 mph - N/A   Mostly Cloudy
8:53 PM 71.1 °F 64.9 °F 81% 29.98 in 10.0 mi SE 11.5 mph - N/A   Mostly Cloudy
9:04 PM 70.0 °F 64.9 °F 84% 30.01 in 10.0 mi ESE 6.9 mph - 0.00 in Rain Light Rain
9:53 PM 68.0 °F 64.9 °F 90% 29.99 in 10.0 mi East 5.8 mph - 0.00 in   Partly Cloudy
10:39 PM 68.0 °F 64.9 °F 90% 30.02 in 10.0 mi East 5.8 mph - N/A   Mostly Cloudy
10:51 PM 68.0 °F 64.4 °F 88% 30.01 in 10.0 mi East 5.8 mph - N/A   Scattered Clouds
10:53 PM 68.0 °F 64.9 °F 90% 29.98 in 10.0 mi East 4.6 mph - N/A   Scattered Clouds
11:53 PM 66.9 °F 64.9 °F 93% 29.98 in 10.0 mi ESE 4.6 mph - N/A   Scattered Clouds